�������l�o���
Date,Time,MP-1(��Sv/h),MP-2(��Sv/h),MP-3(��Sv/h),MP-4(��Sv/h),MP-5(��Sv/h),MP-6(��Sv/h),MP-7(��Sv/h),����,����(m/s),���J
2023/01/24,00:00,0.155,0.140,0.217,0.214,0.213,0.123,0.078,���쐼,2.0,��
2023/01/24,00:10,0.155,0.141,0.217,0.213,0.213,0.123,0.078,�쐼,2.5,��
2023/01/24,00:20,0.154,0.141,0.217,0.214,0.213,0.123,0.078,�쐼,2.2,��
2023/01/24,00:30,0.155,0.141,0.218,0.213,0.213,0.124,0.078,���쐼,2.7,��
2023/01/24,00:40,0.154,0.141,0.217,0.214,0.214,0.123,0.078,�쐼,3.0,��
2023/01/24,00:50,0.154,0.140,0.217,0.213,0.214,0.123,0.079,���쐼,1.6,��
2023/01/24,01:00,0.155,0.140,0.216,0.213,0.213,0.123,0.079,�쐼,2.1,��
2023/01/24,01:10,0.156,0.140,0.218,0.213,0.213,0.123,0.079,��쐼,1.7,��
2023/01/24,01:20,0.156,0.141,0.217,0.213,0.212,0.123,0.077,���쐼,3.6,��
2023/01/24,01:30,0.155,0.141,0.218,0.212,0.212,0.123,0.078,���쐼,4.7,��
2023/01/24,01:40,0.155,0.141,0.218,0.213,0.212,0.124,0.078,���쐼,4.1,��
2023/01/24,01:50,0.155,0.140,0.217,0.213,0.211,0.123,0.077,�쐼,2.9,��
2023/01/24,02:00,0.155,0.141,0.218,0.214,0.212,0.124,0.078,���쐼,3.5,��
2023/01/24,02:10,0.154,0.140,0.217,0.214,0.213,0.123,0.079,��,2.8,��
2023/01/24,02:20,0.154,0.140,0.217,0.213,0.213,0.123,0.078,���k��,3.1,��
2023/01/24,02:30,0.155,0.140,0.218,0.213,0.214,0.124,0.079,���k��,3.2,��
2023/01/24,02:40,0.156,0.141,0.218,0.212,0.212,0.123,0.078,���k��,2.0,��
2023/01/24,02:50,0.155,0.140,0.217,0.213,0.212,0.123,0.079,���k��,4.3,��
2023/01/24,03:00,0.156,0.141,0.217,0.214,0.212,0.122,0.078,���k��,4.3,��
2023/01/24,03:10,0.154,0.140,0.217,0.214,0.214,0.123,0.079,���k��,4.7,��
2023/01/24,03:20,0.155,0.142,0.216,0.213,0.212,0.123,0.079,���k��,4.3,��
2023/01/24,03:30,0.155,0.140,0.218,0.213,0.214,0.123,0.079,�k��,2.7,��
2023/01/24,03:40,0.156,0.140,0.218,0.213,0.211,0.123,0.079,�k��,4.4,��
2023/01/24,03:50,0.154,0.141,0.218,0.214,0.213,0.124,0.079,�k��,6.4,��
2023/01/24,04:00,0.156,0.140,0.217,0.214,0.213,0.122,0.079,�k��,5.2,��
2023/01/24,04:10,0.155,0.141,0.219,0.213,0.213,0.123,0.079,�k��,5.6,��
2023/01/24,04:20,0.155,0.141,0.217,0.213,0.213,0.123,0.079,�k��,5.5,��
2023/01/24,04:30,0.155,0.141,0.217,0.214,0.212,0.124,0.079,�k�k��,4.8,��
2023/01/24,04:40,0.155,0.141,0.217,0.212,0.213,0.124,0.079,�k��,4.9,��
2023/01/24,04:50,0.155,0.141,0.217,0.214,0.213,0.124,0.079,�k�k��,5.6,��
2023/01/24,05:00,0.155,0.140,0.218,0.213,0.213,0.123,0.079,�k��,5.8,��
2023/01/24,05:10,0.155,0.140,0.217,0.213,0.213,0.124,0.079,�k�k��,6.5,��
2023/01/24,05:20,0.155,0.141,0.218,0.214,0.213,0.123,0.079,�k�k��,5.8,��
2023/01/24,05:30,0.155,0.141,0.218,0.214,0.213,0.123,0.078,�k�k��,5.2,��
2023/01/24,05:40,0.155,0.141,0.217,0.214,0.213,0.123,0.078,�k�k��,4.3,��
2023/01/24,05:50,0.155,0.141,0.218,0.213,0.214,0.123,0.079,�k�k��,4.5,��
2023/01/24,06:00,0.154,0.141,0.217,0.213,0.213,0.124,0.079,�k�k��,5.0,��
2023/01/24,06:10,0.156,0.141,0.217,0.213,0.213,0.124,0.078,�k�k��,3.8,��
2023/01/24,06:20,0.155,0.141,0.217,0.213,0.214,0.124,0.079,�k�k��,3.9,��
2023/01/24,06:30,0.155,0.141,0.217,0.213,0.213,0.123,0.079,�k�k��,3.4,��
2023/01/24,06:40,0.155,0.140,0.217,0.213,0.213,0.123,0.079,�k�k��,3.3,��
2023/01/24,06:50,0.155,0.141,0.218,0.215,0.213,0.122,0.079,�k�k��,2.6,��
2023/01/24,07:00,0.155,0.141,0.217,0.213,0.213,0.123,0.079,�k�k��,2.6,��
2023/01/24,07:10,0.156,0.140,0.216,0.214,0.212,0.123,0.079,�k�k��,2.5,��
2023/01/24,07:20,0.155,0.141,0.217,0.212,0.213,0.123,0.079,�k��,2.8,��
2023/01/24,07:30,0.155,0.140,0.217,0.214,0.213,0.123,0.078,�k�k��,1.9,��
2023/01/24,07:40,0.156,0.140,0.217,0.213,0.212,0.124,0.079,�k�k��,1.9,��
2023/01/24,07:50,0.154,0.140,0.218,0.213,0.213,0.123,0.078,�k�k��,1.6,��
2023/01/24,08:00,0.155,0.141,0.218,0.214,0.213,0.124,0.078,�k�k��,1.6,��
2023/01/24,08:10,0.156,0.141,0.217,0.214,0.213,0.123,0.078,�k�k��,2.9,��
2023/01/24,08:20,0.155,0.140,0.217,0.213,0.213,0.124,0.079,�k�k��,4.1,��
2023/01/24,08:30,0.155,0.142,0.218,0.213,0.213,0.124,0.078,�k�k��,4.0,��
2023/01/24,08:40,0.154,0.141,0.217,0.213,0.213,0.123,0.078,�k�k��,3.3,��
2023/01/24,08:50,0.156,0.141,0.218,0.213,0.214,0.123,0.079,�k,2.2,��
2023/01/24,09:00,0.155,0.141,0.217,0.214,0.212,0.124,0.078,�k�k��,1.3,��
2023/01/24,09:10,0.155,0.141,0.217,0.214,0.212,0.124,0.078,���k��,1.6,��
2023/01/24,09:20,0.155,0.140,0.217,0.214,0.213,0.124,0.079,���쓌,1.2,��
2023/01/24,09:30,0.155,0.141,0.218,0.213,0.212,0.123,0.079,�쓌,1.2,��
2023/01/24,09:40,0.155,0.142,0.217,0.213,0.212,0.123,0.079,�쓌,1.1,��
2023/01/24,09:50,0.155,0.141,0.218,0.213,0.213,0.123,0.079,��,0.8,��
2023/01/24,10:00,0.155,0.141,0.217,0.214,0.213,0.124,0.079,�쐼,1.8,��
2023/01/24,10:10,0.155,0.141,0.217,0.213,0.214,0.124,0.078,�쐼,2.8,��
2023/01/24,10:20,0.155,0.141,0.217,0.214,0.213,0.125,0.079,��쐼,2.9,�L
2023/01/24,10:30,0.156,0.142,0.218,0.214,0.214,0.125,0.079,��쐼,2.4,�L
2023/01/24,10:40,0.158,0.144,0.220,0.218,0.217,0.127,0.082,��,2.4,�L
2023/01/24,10:50,0.160,0.147,0.224,0.219,0.217,0.129,0.084,��,2.8,�L
2023/01/24,11:00,0.162,0.148,0.225,0.221,0.218,0.130,0.085,��,1.0,�L
2023/01/24,11:10,0.161,0.148,0.225,0.220,0.218,0.130,0.085,��,1.8,�L
2023/01/24,11:20,0.161,0.148,0.225,0.220,0.219,0.131,0.086,��,3.9,�L
2023/01/24,11:30,0.162,0.149,0.225,0.222,0.220,0.132,0.087,��쓌,3.4,�L
2023/01/24,11:40,0.163,0.149,0.226,0.221,0.219,0.131,0.086,��쓌,2.9,�L
2023/01/24,11:50,0.163,0.149,0.225,0.222,0.219,0.130,0.085,�쓌,2.8,�L
2023/01/24,12:00,0.163,0.148,0.225,0.221,0.219,0.131,0.085,�쓌,3.3,�L
2023/01/24,12:10,0.161,0.147,0.224,0.218,0.218,0.130,0.085,�쓌,4.8,�L
2023/01/24,12:20,0.160,0.145,0.222,0.218,0.217,0.129,0.083,��쓌,4.7,��
2023/01/24,12:30,0.159,0.144,0.220,0.217,0.216,0.127,0.082,��쓌,3.1,��
2023/01/24,12:40,0.159,0.144,0.219,0.218,0.215,0.126,0.081,�쓌,3.9,��
2023/01/24,12:50,0.156,0.144,0.219,0.214,0.215,0.126,0.081,�쓌,3.7,��
2023/01/24,13:00,0.157,0.143,0.219,0.215,0.213,0.126,0.081,�쓌,4.3,��
2023/01/24,13:10,0.156,0.142,0.218,0.215,0.214,0.124,0.080,��쓌,4.6,��
2023/01/24,13:20,0.156,0.143,0.217,0.213,0.213,0.124,0.079,�쓌,4.2,��
2023/01/24,13:30,0.154,0.141,0.218,0.215,0.213,0.124,0.079,��쓌,3.5,��
2023/01/24,13:40,0.156,0.142,0.219,0.214,0.214,0.125,0.078,�쓌,3.6,��
2023/01/24,13:50,0.155,0.141,0.216,0.214,0.213,0.124,0.078,��쓌,4.8,��
2023/01/24,14:00,0.156,0.140,0.217,0.215,0.213,0.124,0.078,��쓌,2.9,��
2023/01/24,14:10,0.156,0.141,0.217,0.214,0.213,0.124,0.079,��,1.5,�L
2023/01/24,14:20,0.157,0.141,0.217,0.214,0.214,0.124,0.079,��쓌,2.5,�L
2023/01/24,14:30,0.156,0.141,0.217,0.214,0.213,0.125,0.079,��,2.6,�L
2023/01/24,14:40,0.157,0.141,0.218,0.213,0.214,0.124,0.080,��,2.3,��
2023/01/24,14:50,0.156,0.141,0.217,0.213,0.213,0.125,0.080,��,2.6,��
2023/01/24,15:00,0.156,0.140,0.216,0.214,0.214,0.124,0.079,��,2.3,��
2023/01/24,15:10,0.154,0.141,0.217,0.214,0.213,0.124,0.080,-,CALM,�L
2023/01/24,15:20,0.157,0.142,0.218,0.214,0.214,0.125,0.080,�k,8.5,�L
2023/01/24,15:30,0.159,0.143,0.218,0.216,0.215,0.127,0.083,�k�k��,6.7,�L
2023/01/24,15:40,0.159,0.144,0.220,0.216,0.216,0.127,0.082,�k,6.6,�L
2023/01/24,15:50,0.159,0.142,0.218,0.215,0.215,0.127,0.082,�k,8.4,�L
2023/01/24,16:00,0.158,0.144,0.219,0.216,0.216,0.127,0.082,�k,7.5,�L
2023/01/24,16:10,0.158,0.143,0.218,0.215,0.216,0.126,0.081,�k,8.4,��
2023/01/24,16:20,0.157,0.144,0.220,0.215,0.215,0.125,0.081,�k,8.2,��
2023/01/24,16:30,0.158,0.143,0.219,0.214,0.215,0.125,0.082,�k,5.9,��
2023/01/24,16:40,0.157,0.142,0.217,0.215,0.215,0.125,0.081,�k,6.1,�L
2023/01/24,16:50,0.157,0.142,0.219,0.214,0.214,0.125,0.080,�k�k��,7.9,�L
2023/01/24,17:00,0.157,0.143,0.219,0.214,0.215,0.124,0.081,�k��,8.8,��
2023/01/24,17:10,0.159,0.143,0.218,0.214,0.215,0.125,0.081,�k��,10.6,�L
2023/01/24,17:20,0.158,0.143,0.219,0.214,0.214,0.125,0.080,�k��,10.6,�L
2023/01/24,17:30,0.159,0.144,0.221,0.215,0.217,0.127,0.082,���k��,12.0,�L
2023/01/24,17:40,0.162,0.147,0.222,0.216,0.219,0.130,0.086,�k�k��,11.2,�L
2023/01/24,17:50,0.164,0.148,0.224,0.218,0.218,0.131,0.086,�k��,12.9,�L
2023/01/24,18:00,0.164,0.150,0.224,0.218,0.221,0.132,0.087,�k�k��,10.7,�L
2023/01/24,18:10,0.165,0.150,0.225,0.221,0.222,0.133,0.087,�k�k��,11.5,�L
2023/01/24,18:20,0.166,0.150,0.226,0.223,0.221,0.134,0.087,�k�k��,10.0,�L
2023/01/24,18:30,0.164,0.150,0.225,0.221,0.222,0.133,0.087,�k�k��,10.3,��
2023/01/24,18:40,0.162,0.149,0.223,0.221,0.219,0.132,0.086,�k�k��,12.0,��
2023/01/24,18:50,0.162,0.147,0.223,0.219,0.219,0.131,0.084,�k�k��,11.7,��
2023/01/24,19:00,0.160,0.146,0.222,0.217,0.219,0.130,0.084,�k��,9.6,��
2023/01/24,19:10,0.160,0.145,0.221,0.217,0.217,0.128,0.083,�k�k��,13.7,�L
2023/01/24,19:20,0.159,0.144,0.221,0.216,0.216,0.128,0.081,�k��,10.3,��
2023/01/24,19:30,0.158,0.144,0.219,0.216,0.214,0.126,0.081,�k��,12.8,�L
2023/01/24,19:40,0.158,0.143,0.220,0.215,0.216,0.126,0.082,�k��,10.9,�L
2023/01/24,19:50,0.159,0.142,0.221,0.215,0.214,0.126,0.080,�k��,11.2,��
2023/01/24,20:00,0.158,0.143,0.219,0.216,0.214,0.125,0.080,�k��,12.3,��
2023/01/24,20:10,0.157,0.143,0.219,0.215,0.213,0.125,0.081,�k�k��,12.9,��
2023/01/24,20:20,0.157,0.141,0.220,0.214,0.213,0.125,0.080,�k�k��,11.2,�L
2023/01/24,20:30,0.157,0.141,0.219,0.213,0.212,0.124,0.079,�k��,14.0,��
2023/01/24,20:40,0.156,0.140,0.220,0.214,0.212,0.125,0.079,�k��,11.8,��
2023/01/24,20:50,0.157,0.142,0.218,0.214,0.212,0.124,0.079,�k��,13.4,�L
2023/01/24,21:00,0.157,0.141,0.218,0.213,0.212,0.125,0.078,�k��,13.7,��
2023/01/24,21:10,0.157,0.141,0.217,0.212,0.212,0.123,0.080,���k��,11.5,��
2023/01/24,21:20,0.156,0.142,0.218,0.214,0.211,0.124,0.079,�k��,9.0,��
2023/01/24,21:30,0.156,0.141,0.217,0.214,0.211,0.123,0.079,�k��,11.7,��
2023/01/24,21:40,0.157,0.141,0.219,0.214,0.211,0.123,0.078,�k��,12.0,��
2023/01/24,21:50,0.155,0.140,0.218,0.213,0.212,0.124,0.079,�k�k��,12.9,��
2023/01/24,22:00,0.156,0.141,0.219,0.213,0.211,0.123,0.078,�k��,10.1,��
2023/01/24,22:10,0.155,0.140,0.218,0.213,0.211,0.123,0.079,�k��,12.9,��
2023/01/24,22:20,0.156,0.140,0.218,0.213,0.212,0.124,0.079,�k��,10.4,��
2023/01/24,22:30,0.155,0.141,0.217,0.213,0.212,0.123,0.078,�k�k��,11.4,��
2023/01/24,22:40,0.156,0.141,0.218,0.214,0.212,0.122,0.078,�k��,7.3,��
2023/01/24,22:50,0.157,0.142,0.218,0.213,0.212,0.123,0.079,�k��,7.0,��
2023/01/24,23:00,0.156,0.142,0.217,0.214,0.211,0.123,0.079,�k��,6.4,��
2023/01/24,23:10,0.156,0.141,0.218,0.213,0.212,0.124,0.079,�k��,5.6,��
2023/01/24,23:20,0.156,0.141,0.218,0.213,0.211,0.123,0.078,�k��,7.0,��
2023/01/24,23:30,0.156,0.141,0.217,0.213,0.211,0.123,0.078,�k��,5.1,��
2023/01/24,23:40,0.156,0.141,0.216,0.213,0.210,0.123,0.078,�k��,4.5,��
2023/01/24,23:50,0.156,0.140,0.218,0.213,0.211,0.123,0.078,�k�k��,5.5,��
